Location: Lawrence Hall of Science
(37.8785°N, 122.2415°W)
Time: 01:34:17
(UTC-07:00)

ARGOS - Visible Passes

Search period start: 02 September 2015 00:00
Search period end: 12 September 2015 00:00
Orbit: 821 x 834 km, 98.7° (Epoch: 01 September)

Date Brightness Start Highest point End Pass type
(mag) Time Alt. Az. Time Alt. Az. Time Alt. Az.
02 Sep 4.7 21:28:58 19° ENE 21:28:58 19° ENE 21:32:16 10° NNE visible
02 Sep 4.7 23:10:30 33° NW 23:10:30 33° NW 23:13:36 10° NNW visible
03 Sep 5.1 21:10:21 13° ENE 21:10:21 13° ENE 21:12:43 10° NNE visible
03 Sep 4.3 22:51:52 39° NNW 22:51:52 39° NNW 22:55:13 10° NNW visible
04 Sep 4.2 22:33:15 40° N 22:33:15 40° N 22:36:42 10° N visible
05 Sep 4.2 22:14:38 35° NNE 22:14:38 35° NNE 22:18:03 10° N visible
05 Sep 5.8 23:56:10 14° NW 23:56:10 14° NW 23:57:14 10° NW visible
06 Sep 4.4 21:56:01 28° NE 21:56:01 28° NE 21:59:16 10° N visible
06 Sep 5.5 23:37:33 19° NW 23:37:33 19° NW 23:39:23 10° NW visible
07 Sep 4.7 21:37:24 21° NE 21:37:24 21° NE 21:40:17 10° NNE visible
07 Sep 5.2 23:18:56 24° NW 23:18:56 24° NW 23:21:15 10° NNW visible
08 Sep 5.0 21:18:46 15° NE 21:18:46 15° NE 21:21:00 10° NNE visible
08 Sep 4.9 23:00:19 29° NNW 23:00:19 29° NNW 23:02:56 10° NNW visible
09 Sep 5.3 21:00:10 10° NE 21:00:10 10° NE 21:00:35 10° NE visible
09 Sep 4.6 22:41:42 31° N 22:41:42 31° N 22:44:28 10° NNW visible
10 Sep 4.6 22:23:05 30° N 22:23:05 30° N 22:25:53 10° N visible
11 Sep 4.7 22:04:28 26° NNE 22:04:28 26° NNE 22:07:09 10° N visible
11 Sep 5.8 23:45:59 14° NW 23:45:59 14° NW 23:46:54 10° NW visible
